Total_Precipitation_Accumulation
0.00 0.00 0.01 0.01 0.01 0.02 0.02 0.05 0.11 0.19 0.13 0.13 0.23 0.43 0.50 0.55 0.62 0.79 0.93 0.91 0.98 1.12 1.47 1.87 2.31 2.82 3.46 4.27 5.14 5.35 4.89 4.19 3.53 2.94 2.40 2.03 1.75 1.58 1.54 1.30 1.09 1.02 1.01 0.97
0.01 0.02 0.02 0.02 0.02 0.04 0.05 0.07 0.12 0.16 0.11 0.13 0.20 0.41 0.60 0.71 0.83 0.82 0.87 0.93 0.92 1.13 1.51 1.94 2.47 2.89 3.26 3.75 4.42 4.54 4.04 3.32 2.57 2.06 1.84 1.68 1.52 1.28 1.13 1.03 0.95 0.80 0.81 0.83
0.01 0.03 0.02 0.02 0.02 0.05 0.07 0.08 0.12 0.14 0.07 0.12 0.20 0.49 0.77 0.89 0.75 0.61 0.53 0.64 0.68 0.84 1.31 1.98 2.48 2.78 3.06 3.22 3.16 3.14 2.81 2.22 1.79 1.54 1.41 1.29 1.25 1.15 0.95 0.82 0.71 0.60 0.58 0.59
0.01 0.02 0.01 0.02 0.03 0.04 0.07 0.05 0.05 0.05 0.06 0.20 0.29 0.75 0.99 0.89 0.74 0.60 0.46 0.43 0.47 0.65 1.08 1.83 2.14 2.20 2.27 2.31 2.07 1.98 1.95 1.68 1.44 1.28 1.14 0.97 0.81 0.79 0.69 0.63 0.58 0.53 0.49 0.48
0.02 0.02 0.02 0.02 0.03 0.04 0.05 0.04 0.04 0.07 0.11 0.25 0.43 0.73 1.01 0.84 0.78 0.59 0.42 0.37 0.42 0.53 0.79 1.13 1.19 1.30 1.40 1.42 1.37 1.47 1.64 1.61 1.46 1.32 1.22 1.11 0.87 0.73 0.66 0.62 0.59 0.54 0.51 0.46
0.04 0.04 0.03 0.03 0.02 0.03 0.04 0.05 0.11 0.23 0.34 0.66 0.67 0.73 1.04 0.88 0.67 0.44 0.33 0.34 0.28 0.35 0.52 0.71 0.75 0.78 0.83 0.83 0.91 1.09 1.41 1.51 1.43 1.32 1.22 1.07 0.90 0.78 0.66 0.57 0.52 0.48 0.48 0.49
0.10 0.08 0.08 0.06 0.05 0.06 0.05 0.09 0.26 0.60 1.00 1.12 0.68 0.71 0.99 0.63 0.42 0.30 0.22 0.20 0.25 0.35 0.44 0.57 0.70 0.70 0.64 0.60 0.66 0.80 0.99 1.08 1.09 1.13 1.15 1.07 1.00 0.85 0.70 0.59 0.46 0.41 0.41 0.41
0.14 0.15 0.11 0.07 0.05 0.06 0.07 0.09 0.18 0.36 0.45 0.56 0.57 0.95 1.07 0.54 0.35 0.23 0.15 0.13 0.18 0.25 0.31 0.34 0.43 0.43 0.43 0.47 0.47 0.55 0.68 0.74 0.79 0.87 0.95 0.92 0.88 0.81 0.68 0.64 0.49 0.40 0.40 0.43
0.06 0.06 0.04 0.04 0.06 0.06 0.06 0.06 0.07 0.08 0.14 0.35 0.64 0.86 0.74 0.46 0.29 0.17 0.12 0.10 0.10 0.12 0.14 0.16 0.16 0.18 0.23 0.30 0.39 0.47 0.56 0.60 0.64 0.70 0.77 0.76 0.74 0.74 0.73 0.68 0.56 0.46 0.49 0.50
0.03 0.03 0.03 0.04 0.05 0.07 0.07 0.06 0.06 0.05 0.15 0.33 0.57 0.85 0.83 0.54 0.34 0.17 0.11 0.09 0.08 0.08 0.07 0.09 0.11 0.11 0.11 0.14 0.26 0.41 0.46 0.54 0.62 0.65 0.63 0.62 0.69 0.68 0.69 0.65 0.57 0.55 0.52 0.50
0.02 0.02 0.02 0.03 0.05 0.07 0.06 0.06 0.06 0.06 0.08 0.19 0.42 0.62 0.48 0.33 0.19 0.14 0.10 0.07 0.08 0.08 0.07 0.07 0.08 0.08 0.09 0.11 0.17 0.27 0.35 0.42 0.46 0.50 0.53 0.63 0.68 0.66 0.62 0.63 0.58 0.57 0.52 0.50
0.03 0.02 0.02 0.06 0.07 0.07 0.06 0.06 0.07 0.09 0.09 0.13 0.24 0.31 0.22 0.21 0.18 0.15 0.12 0.09 0.10 0.10 0.09 0.10 0.09 0.07 0.07 0.10 0.12 0.19 0.21 0.23 0.26 0.32 0.39 0.47 0.58 0.58 0.57 0.60 0.63 0.61 0.57 0.50
0.03 0.02 0.04 0.14 0.20 0.15 0.08 0.06 0.09 0.10 0.10 0.12 0.27 0.38 0.24 0.18 0.22 0.23 0.17 0.14 0.13 0.12 0.12 0.12 0.12 0.07 0.06 0.09 0.12 0.15 0.16 0.18 0.20 0.24 0.28 0.35 0.44 0.50 0.54 0.56 0.55 0.54 0.56 0.55
0.05 0.04 0.05 0.16 0.22 0.22 0.17 0.13 0.12 0.12 0.12 0.11 0.18 0.33 0.26 0.20 0.25 0.22 0.16 0.20 0.19 0.15 0.15 0.16 0.18 0.12 0.09 0.11 0.14 0.17 0.18 0.20 0.21 0.23 0.30 0.34 0.40 0.46 0.50 0.51 0.54 0.54 0.60 0.61
0.06 0.06 0.05 0.05 0.10 0.16 0.18 0.15 0.13 0.10 0.10 0.12 0.14 0.21 0.26 0.32 0.27 0.18 0.22 0.28 0.20 0.17 0.17 0.15 0.16 0.15 0.13 0.14 0.16 0.17 0.20 0.23 0.24 0.26 0.32 0.35 0.41 0.45 0.47 0.50 0.55 0.60 0.63 0.64
0.09 0.08 0.07 0.06 0.10 0.12 0.13 0.16 0.12 0.08 0.07 0.08 0.10 0.17 0.23 0.28 0.33 0.29 0.23 0.23 0.22 0.21 0.20 0.22 0.25 0.22 0.20 0.18 0.18 0.18 0.22 0.30 0.36 0.41 0.43 0.41 0.44 0.49 0.49 0.53 0.56 0.64 0.68 0.73
0.16 0.16 0.16 0.15 0.15 0.15 0.16 0.15 0.11 0.09 0.10 0.11 0.12 0.17 0.24 0.30 0.34 0.37 0.36 0.29 0.28 0.33 0.33 0.39 0.45 0.37 0.28 0.25 0.25 0.26 0.30 0.35 0.42 0.49 0.59 0.60 0.60 0.63 0.64 0.67 0.70 0.75 0.85 0.89
0.25 0.26 0.23 0.21 0.24 0.27 0.18 0.14 0.12 0.11 0.13 0.14 0.18 0.24 0.29 0.37 0.43 0.49 0.55 0.51 0.42 0.37 0.37 0.40 0.42 0.46 0.44 0.41 0.40 0.41 0.44 0.48 0.59 0.70 0.80 0.86 0.89 0.93 0.99 1.03 0.99 1.01 1.06 1.11
0.27 0.36 0.34 0.32 0.37 0.31 0.23 0.21 0.20 0.21 0.24 0.26 0.34 0.47 0.53 0.53 0.58 0.62 0.56 0.46 0.40 0.38 0.37 0.45 0.47 0.49 0.50 0.58 0.58 0.55 0.55 0.60 0.76 0.91 1.02 1.06 1.11 1.17 1.21 1.19 1.23 1.31 1.38 1.39
0.32 0.34 0.42 0.39 0.43 0.43 0.39 0.35 0.34 0.41 0.60 0.52 0.57 0.61 0.56 0.51 0.63 0.60 0.48 0.42 0.39 0.37 0.39 0.47 0.53 0.52 0.57 0.70 0.69 0.68 0.72 0.78 0.83 0.87 0.96 1.12 1.28 1.40 1.38 1.37 1.48 1.60 1.70 1.66
0.53 0.53 0.50 0.46 0.48 0.41 0.42 0.40 0.45 0.75 0.94 0.77 0.71 0.68 0.64 0.69 0.69 0.63 0.51 0.41 0.34 0.32 0.37 0.43 0.47 0.50 0.51 0.60 0.70 0.84 0.95 0.98 0.98 1.03 1.10 1.22 1.37 1.51 1.53 1.58 1.61 1.70 1.79 1.78
0.74 0.75 0.73 0.68 0.75 0.71 0.49 0.52 0.75 0.89 0.73 0.70 0.76 0.82 0.81 0.74 0.65 0.52 0.45 0.40 0.31 0.30 0.31 0.35 0.42 0.46 0.50 0.60 0.74 0.92 1.07 1.15 1.20 1.28 1.41 1.46 1.52 1.51 1.48 1.58 1.67 1.72 1.79 1.78
0.83 0.83 0.84 0.85 0.87 0.77 0.64 0.69 0.66 0.63 0.68 0.72 0.74 0.84 0.84 0.74 0.71 0.57 0.48 0.41 0.34 0.31 0.29 0.31 0.36 0.43 0.51 0.61 0.76 0.99 1.08 1.17 1.24 1.32 1.40 1.51 1.56 1.58 1.55 1.59 1.63 1.74 1.80 1.79
0.78 0.74 0.80 0.91 0.90 0.79 0.74 0.74 0.65 0.59 0.62 0.65 0.67 0.69 0.72 0.67 0.70 0.67 0.57 0.45 0.38 0.33 0.29 0.30 0.35 0.42 0.50 0.53 0.60 0.74 0.84 0.93 1.02 1.08 1.14 1.19 1.29 1.39 1.50 1.61 1.60 1.61 1.68 1.75
0.73 0.68 0.75 0.94 1.02 1.06 0.97 0.86 0.78 0.71 0.72 0.76 0.76 0.71 0.68 0.58 0.57 0.60 0.54 0.44 0.38 0.33 0.29 0.31 0.38 0.39 0.43 0.49 0.52 0.57 0.66 0.83 0.93 0.94 0.97 1.05 1.15 1.25 1.40 1.54 1.59 1.51 1.51 1.57
0.80 0.74 0.71 0.85 0.89 1.05 1.11 1.00 0.88 0.80 0.84 0.85 0.82 0.75 0.68 0.57 0.49 0.41 0.37 0.31 0.30 0.28 0.30 0.35 0.39 0.39 0.40 0.44 0.48 0.51 0.61 0.77 0.88 0.90 0.88 0.91 0.97 1.07 1.18 1.29 1.35 1.23 1.06 1.04